Location: Saint-Gilles les Bains
(21.0539°S, 55.2287°E)
Time: 03:06:05
(UTC+04:00)

Hubble Space Telescope - Pass Details

Date: 17 April 2024
Orbit: 512 x 516 km, 28.5° (Epoch: 18 May)

Event Time Altitude Azimuth Distance (km) Brightness Sun altitude
Exits shadow 05:24:31 28° 231° (SW) 1,000 1.7 -16.3°
Maximum altitude 05:25:51 36° 191° (S) 838 1.6 -16.0°
Drops below altitude 10° 05:29:36 10° 123° (ESE) 1,754 4.1 -15.1°
Sets 05:31:59 0° 114° (ESE) 2,643 5.4 -14.6°
